Showing default

FLOCK 4G 26, 62633

Orbit data source: Space-Track

FLOCK 4G 26, 62633 is a payload satellite owned by Planet (US) in SSO that was launched on Tue, 14 Jan 2025 UTC via an FALCON 9 launch vehicle from the Air Force Western Test Range (AFWTR). Payload-class satellites include a variety of spacecraft equipped with specific instruments for various scientific and technological missions. These include communications satellites like Starlink; space stations such as the ISS; scientific satellites like the Hubble; Earth observation satellites from companies like Planet Labs, Umbra, and HawkEye 360; GPS; miniature CubeSats for education and research; and military/defense satellites.

Loading next visibility...
Identifier
62633, 2025-009AA
Orbit
SSO
Last TLE update
21 hours ago
Origin
Manufacturer
Planet
Mission
Operational Commercial Imaging
Bus & Motor
CUBESAT 3U, Unknown motor
Mass
5.7 kg wet, 5.7 kg dry
Launch date (UTC)
2025-01-14 (5 months ago)
Launch vehicle
FALCON 9
Launch site
Air Force Western Test Range (AFWTR)
Object type
Payload
Rocket body
Debris
Shape & HBR
Box + 2 Pan, 0.3 m
Radar Cross Section
0.035 m², Medium (>0.1 m² and < 1m²)

Expand to show TLE details & history

TLE from 21 hours ago
0 FLOCK 4G 26
1 62633U 25009AA  25162.78201761  .00005280  00000-0  24259-3 0  9994
2 62633  97.4335 243.2147 0004762 149.3680 210.7834 15.20794293 22467
Epoch: 2025-06-11T18:46Z
TLE epoch observation values (Epoch: 2025-06-11T18:46:06.321Z)
Latitude
-0.00006°
Longitude
61.32878°
Altitude
509.35 km
Speed
7.608 km/s
True Right ascension
16h 12m 51s
True Declination
0° 00' 00"
Sunlit
Object was in full shadow at epoch
Visualization orbit readout
Latitude
3.12271°
Longitude
-117.39004°
Altitude
503.328 km
Speed
7.614 km/s
Apparent Right ascension
07h 04m 57s
Apparent Declination
-47° 36' 52"
Sunlit
Object is in daylight
Visualization observer readout
Local Sidereal Time
02:28:45
Azimuth
138.881° SSE
Elevation
-16.802°
Doppler factor
1
Orbital elements
Apogee altitude
503.685 km
Perigee altitude
497.134 km
Semi-major axis
6,878.546 km
Eccentricity
0.00048
Inclination
97.4335°
RAAN
243.2147°
Arg. of periapsis
149.368°
True anomaly
Unknown
Mean anomaly
210.7834°
Eccentric anomaly
Unknown
Mean motion
3.80451 °/min
Orbital period
94.62 mins
BSTAR
0.00024259
Loading maneuver chart data...
Loading SW <> Apogee altitude chart data...
Loading historical data...
Loading historical data...
Loading historical data...
Loading historical data...
Loading historical data...
Loading historical data...
Loading historical data...

FLOCK 4G 26 Visibility forecast

Observer location: undefined°, undefined°

Span
Click to sort rows by Start time (UTC) header in descending order
Start Az.
Max El. time (UTC)
Max El. Az.
Max El.
End time (UTC)
End Az.
5 mins2025-06-12 17:27:17.693Z49.308° ENE2025-06-12 17:29:17.693Z86.181° E19.548°2025-06-12 17:32:17.693Z144.023° SSE
5 mins2025-06-13 05:39:17.693Z191.71° SSW2025-06-13 05:41:17.693Z283.051° WNW39.258°2025-06-13 05:44:17.693Z338.5° N
|